Time,TemperatureF,DewpointF,PressureIn,WindDirection,WindDirectionDegrees,WindSpeedMPH,WindSpeedGustMPH,Humidity,HourlyPrecipIn,Conditions,Clouds,dailyrainin,SolarRadiationWatts/m^2,SoftwareType,DateUTC
2013-05-08 00:02:00,60.0,39.0,-100.00,South,190,5.0,8.0,46,0.00,,,0.00,0.000000,,2013-05-08 05:02:00,
2013-05-08 00:32:00,58.0,39.0,-100.00,South,187,5.0,8.0,49,0.00,,,0.00,0.000000,,2013-05-08 05:32:00,
2013-05-08 00:42:00,58.0,39.0,-100.00,South,187,5.0,8.0,49,0.00,,,0.00,0.000000,,2013-05-08 05:42:00,
2013-05-08 00:52:00,58.0,39.0,-100.00,South,187,5.0,8.0,49,0.00,,,0.00,0.000000,,2013-05-08 05:52:00,
2013-05-08 01:01:00,58.0,39.0,-100.00,South,187,5.0,8.0,49,0.00,,,0.00,0.000000,,2013-05-08 06:01:00,
2013-05-08 01:22:00,56.0,39.0,-100.00,SSW,192,5.0,8.0,53,0.00,,,0.00,0.000000,,2013-05-08 06:22:00,
2013-05-08 01:32:00,56.0,39.0,-100.00,SSW,192,5.0,8.0,53,0.00,,,0.00,0.000000,,2013-05-08 06:32:00,
2013-05-08 01:42:00,56.0,39.0,-100.00,SSW,192,5.0,8.0,53,0.00,,,0.00,0.000000,,2013-05-08 06:42:00,
2013-05-08 01:52:00,56.0,39.0,-100.00,SSW,192,5.0,8.0,53,0.00,,,0.00,0.000000,,2013-05-08 06:52:00,
2013-05-08 02:01:00,56.0,39.0,-100.00,SSW,192,5.0,8.0,53,0.00,,,0.00,0.000000,,2013-05-08 07:01:00,
2013-05-08 02:22:00,54.0,38.0,-100.00,SW,215,4.0,7.0,55,0.00,,,0.00,0.000000,,2013-05-08 07:22:00,
2013-05-08 02:32:00,54.0,38.0,-100.00,SW,215,4.0,7.0,55,0.00,,,0.00,0.000000,,2013-05-08 07:32:00,
2013-05-08 02:42:00,54.0,38.0,-100.00,SW,215,4.0,7.0,55,0.00,,,0.00,0.000000,,2013-05-08 07:42:00,
2013-05-08 02:52:00,54.0,38.0,-100.00,SW,215,4.0,7.0,55,0.00,,,0.00,0.000000,,2013-05-08 07:52:00,
2013-05-08 03:01:00,54.0,38.0,-100.00,SW,215,4.0,7.0,55,0.00,,,0.00,0.000000,,2013-05-08 08:01:00,
2013-05-08 03:22:00,53.0,40.0,-100.00,SW,224,5.0,7.0,61,0.00,,,0.00,0.000000,,2013-05-08 08:22:00,
2013-05-08 03:32:00,53.0,40.0,-100.00,SW,224,5.0,7.0,61,0.00,,,0.00,0.000000,,2013-05-08 08:32:00,
2013-05-08 03:43:00,53.0,40.0,-100.00,SW,224,5.0,7.0,61,0.00,,,0.00,0.000000,,2013-05-08 08:43:00,
2013-05-08 03:52:00,53.0,40.0,-100.00,SW,224,5.0,7.0,61,0.00,,,0.00,0.000000,,2013-05-08 08:52:00,
2013-05-08 04:02:00,53.0,40.0,-100.00,SW,224,5.0,7.0,61,0.00,,,0.00,0.000000,,2013-05-08 09:02:00,
2013-05-08 04:22:00,51.0,39.0,-100.00,SW,226,3.0,7.0,64,0.00,,,0.00,0.000000,,2013-05-08 09:22:00,
2013-05-08 04:32:00,51.0,39.0,-100.00,SW,226,3.0,7.0,64,0.00,,,0.00,0.000000,,2013-05-08 09:32:00,
2013-05-08 04:42:00,51.0,39.0,-100.00,SW,226,3.0,7.0,64,0.00,,,0.00,0.000000,,2013-05-08 09:42:00,
2013-05-08 04:53:00,51.0,39.0,-100.00,SW,226,3.0,7.0,64,0.00,,,0.00,0.000000,,2013-05-08 09:53:00,
2013-05-08 05:02:00,51.0,39.0,-100.00,SW,226,3.0,7.0,64,0.00,,,0.00,0.000000,,2013-05-08 10:02:00,
2013-05-08 05:33:00,50.0,39.0,-100.00,SSW,208,3.0,5.0,65,0.00,,,0.00,0.000000,,2013-05-08 10:33:00,
2013-05-08 05:42:00,50.0,39.0,-100.00,SSW,208,3.0,5.0,65,0.00,,,0.00,0.000000,,2013-05-08 10:42:00,
2013-05-08 05:52:00,50.0,39.0,-100.00,SSW,208,3.0,5.0,65,0.00,,,0.00,0.000000,,2013-05-08 10:52:00,
2013-05-08 06:02:00,50.0,39.0,-100.00,SSW,208,3.0,5.0,65,0.00,,,0.00,0.000000,,2013-05-08 11:02:00,
2013-05-08 06:32:00,51.0,40.0,-100.00,SW,225,4.0,6.0,65,0.00,,,0.00,7.000000,,2013-05-08 11:32:00,
2013-05-08 06:42:00,51.0,40.0,-100.00,SW,225,4.0,6.0,65,0.00,,,0.00,7.000000,,2013-05-08 11:42:00,
2013-05-08 06:52:00,51.0,40.0,-100.00,SW,225,4.0,6.0,65,0.00,,,0.00,7.000000,,2013-05-08 11:52:00,
2013-05-08 07:01:00,51.0,40.0,-100.00,SW,225,4.0,6.0,65,0.00,,,0.00,7.000000,,2013-05-08 12:01:00,
2013-05-08 07:22:00,53.0,40.0,-100.00,SW,218,3.0,5.0,61,0.00,,,0.00,83.000000,,2013-05-08 12:22:00,
2013-05-08 07:32:00,53.0,40.0,-100.00,SW,218,3.0,5.0,61,0.00,,,0.00,83.000000,,2013-05-08 12:32:00,
2013-05-08 07:42:00,53.0,40.0,-100.00,SW,218,3.0,5.0,61,0.00,,,0.00,83.000000,,2013-05-08 12:42:00,
2013-05-08 07:52:00,53.0,40.0,-100.00,SW,218,3.0,5.0,61,0.00,,,0.00,83.000000,,2013-05-08 12:52:00,
2013-05-08 08:01:00,53.0,40.0,-100.00,SW,218,3.0,5.0,61,0.00,,,0.00,83.000000,,2013-05-08 13:01:00,
2013-05-08 08:32:00,53.0,40.0,-100.00,SW,218,2.0,5.0,61,0.00,,,0.00,96.000000,,2013-05-08 13:32:00,
2013-05-08 08:42:00,53.0,40.0,-100.00,SW,218,2.0,5.0,61,0.00,,,0.00,96.000000,,2013-05-08 13:42:00,
2013-05-08 08:52:00,53.0,40.0,-100.00,SW,218,2.0,5.0,61,0.00,,,0.00,96.000000,,2013-05-08 13:52:00,
2013-05-08 09:02:00,53.0,40.0,-100.00,SW,218,2.0,5.0,61,0.00,,,0.00,96.000000,,2013-05-08 14:02:00,
2013-05-08 09:22:00,61.0,45.0,-100.00,WSW,239,4.0,7.0,56,0.00,,,0.00,290.000000,,2013-05-08 14:22:00,
2013-05-08 09:32:00,61.0,45.0,-100.00,WSW,239,4.0,7.0,56,0.00,,,0.00,290.000000,,2013-05-08 14:32:00,
2013-05-08 09:42:00,61.0,45.0,-100.00,WSW,239,4.0,7.0,56,0.00,,,0.00,290.000000,,2013-05-08 14:42:00,
2013-05-08 09:52:00,61.0,45.0,-100.00,WSW,239,4.0,7.0,56,0.00,,,0.00,290.000000,,2013-05-08 14:52:00,
2013-05-08 10:02:00,61.0,45.0,-100.00,WSW,239,4.0,7.0,56,0.00,,,0.00,290.000000,,2013-05-08 15:02:00,
2013-05-08 10:22:00,68.0,43.0,-100.00,WNW,285,3.0,7.0,40,0.00,,,0.00,473.000000,,2013-05-08 15:22:00,
2013-05-08 10:33:00,68.0,43.0,-100.00,WNW,285,3.0,7.0,40,0.00,,,0.00,473.000000,,2013-05-08 15:33:00,
2013-05-08 10:42:00,68.0,43.0,-100.00,WNW,285,3.0,7.0,40,0.00,,,0.00,473.000000,,2013-05-08 15:42:00,
2013-05-08 10:53:00,68.0,43.0,-100.00,WNW,285,3.0,7.0,40,0.00,,,0.00,473.000000,,2013-05-08 15:53:00,
2013-05-08 11:03:00,68.0,43.0,-100.00,WNW,285,3.0,7.0,40,0.00,,,0.00,473.000000,,2013-05-08 16:03:00,
2013-05-08 11:23:00,72.0,41.0,-100.00,West,268,4.0,7.0,33,0.00,,,-99.99,670.000000,,2013-05-08 16:23:00,
2013-05-08 11:33:00,72.0,41.0,-100.00,West,268,4.0,7.0,33,0.00,,,-99.99,670.000000,,2013-05-08 16:33:00,
2013-05-08 11:42:00,72.0,41.0,-100.00,West,268,4.0,7.0,33,0.00,,,-99.99,670.000000,,2013-05-08 16:42:00,
2013-05-08 11:52:00,72.0,41.0,-100.00,West,268,4.0,7.0,33,0.00,,,-99.99,670.000000,,2013-05-08 16:52:00,
2013-05-08 12:02:00,72.0,41.0,-100.00,West,268,4.0,7.0,33,0.00,,,-99.99,670.000000,,2013-05-08 17:02:00,
2013-05-08 12:22:00,74.0,41.0,-100.00,SW,221,4.0,8.0,31,0.00,,,-99.99,556.000000,,2013-05-08 17:22:00,
2013-05-08 12:32:00,74.0,41.0,-100.00,SW,221,4.0,8.0,31,0.00,,,-99.99,556.000000,,2013-05-08 17:32:00,
2013-05-08 12:42:00,74.0,41.0,-100.00,SW,221,4.0,8.0,31,0.00,,,-99.99,556.000000,,2013-05-08 17:42:00,
2013-05-08 12:52:00,74.0,41.0,-100.00,SW,221,4.0,8.0,31,0.00,,,-99.99,556.000000,,2013-05-08 17:52:00,
2013-05-08 13:02:00,74.0,41.0,-100.00,SW,221,4.0,8.0,31,0.00,,,-99.99,556.000000,,2013-05-08 18:02:00,
2013-05-08 13:32:00,76.0,41.0,-100.00,SW,232,5.0,14.0,28,0.00,,,0.00,800.000000,,2013-05-08 18:32:00,
2013-05-08 13:42:00,76.0,41.0,-100.00,SW,232,5.0,14.0,28,0.00,,,0.00,800.000000,,2013-05-08 18:42:00,
2013-05-08 13:52:00,76.0,41.0,-100.00,SW,232,5.0,14.0,28,0.00,,,0.00,800.000000,,2013-05-08 18:52:00,
2013-05-08 14:01:00,76.0,41.0,-100.00,SW,232,5.0,14.0,28,0.00,,,0.00,800.000000,,2013-05-08 19:01:00,
2013-05-08 14:32:00,62.0,56.0,-100.00,North,7,5.0,16.0,81,0.07,,,0.07,230.000000,,2013-05-08 19:32:00,
2013-05-08 14:42:00,62.0,56.0,-100.00,North,7,5.0,16.0,81,0.07,,,0.07,230.000000,,2013-05-08 19:42:00,
2013-05-08 14:52:00,62.0,56.0,-100.00,North,7,5.0,16.0,81,0.07,,,0.07,230.000000,,2013-05-08 19:52:00,
2013-05-08 15:02:00,62.0,56.0,-100.00,North,7,5.0,16.0,81,0.07,,,0.07,230.000000,,2013-05-08 20:02:00,
2013-05-08 15:22:00,59.0,51.0,-100.00,ESE,103,4.0,11.0,75,0.01,,,0.08,143.000000,,2013-05-08 20:22:00,
2013-05-08 15:32:00,59.0,51.0,-100.00,ESE,103,4.0,11.0,75,0.01,,,0.08,143.000000,,2013-05-08 20:32:00,
2013-05-08 15:42:00,59.0,51.0,-100.00,ESE,103,4.0,11.0,75,0.01,,,0.08,143.000000,,2013-05-08 20:42:00,
2013-05-08 15:52:00,59.0,51.0,-100.00,ESE,103,4.0,11.0,75,0.01,,,0.08,143.000000,,2013-05-08 20:52:00,
2013-05-08 16:01:00,59.0,51.0,-100.00,ESE,103,4.0,11.0,75,0.01,,,0.08,143.000000,,2013-05-08 21:01:00,
2013-05-08 16:33:00,60.0,51.0,-100.00,SSW,201,3.0,6.0,72,0.00,,,0.08,121.000000,,2013-05-08 21:33:00,
2013-05-08 16:43:00,60.0,51.0,-100.00,SSW,201,3.0,6.0,72,0.00,,,0.08,121.000000,,2013-05-08 21:43:00,
2013-05-08 16:53:00,60.0,51.0,-100.00,SSW,201,3.0,6.0,72,0.00,,,0.08,121.000000,,2013-05-08 21:53:00,
2013-05-08 17:02:00,60.0,51.0,-100.00,SSW,201,3.0,6.0,72,0.00,,,0.08,121.000000,,2013-05-08 22:02:00,
2013-05-08 17:33:00,61.0,52.0,-100.00,NW,313,3.0,6.0,72,0.00,,,0.08,100.000000,,2013-05-08 22:33:00,
2013-05-08 17:42:00,61.0,52.0,-100.00,NW,313,3.0,6.0,72,0.00,,,0.08,100.000000,,2013-05-08 22:42:00,
2013-05-08 17:53:00,61.0,52.0,-100.00,NW,313,3.0,6.0,72,0.00,,,0.08,100.000000,,2013-05-08 22:53:00,
2013-05-08 18:01:00,61.0,52.0,-100.00,NW,313,3.0,6.0,72,0.00,,,0.08,100.000000,,2013-05-08 23:01:00,
2013-05-08 18:22:00,57.0,53.0,-100.00,North,5,1.0,7.0,88,0.02,,,0.10,54.000000,,2013-05-08 23:22:00,
2013-05-08 18:33:00,57.0,53.0,-100.00,North,5,1.0,7.0,88,0.02,,,0.10,54.000000,,2013-05-08 23:33:00,
2013-05-08 18:42:00,57.0,53.0,-100.00,North,5,1.0,7.0,88,0.02,,,0.10,54.000000,,2013-05-08 23:42:00,
2013-05-08 18:52:00,57.0,53.0,-100.00,North,5,1.0,7.0,88,0.02,,,0.10,54.000000,,2013-05-08 23:52:00,
2013-05-08 19:02:00,57.0,53.0,-100.00,North,5,1.0,7.0,88,0.02,,,0.10,54.000000,,2013-05-09 00:02:00,
2013-05-08 19:32:00,57.0,54.0,-100.00,WNW,282,3.0,6.0,89,0.00,,,0.10,58.000000,,2013-05-09 00:32:00,
2013-05-08 19:42:00,57.0,54.0,-100.00,WNW,282,3.0,6.0,89,0.00,,,0.10,58.000000,,2013-05-09 00:42:00,
2013-05-08 19:52:00,57.0,54.0,-100.00,WNW,282,3.0,6.0,89,0.00,,,0.10,58.000000,,2013-05-09 00:52:00,
2013-05-08 20:01:00,57.0,54.0,-100.00,WNW,282,3.0,6.0,89,0.00,,,0.10,58.000000,,2013-05-09 01:01:00,
2013-05-08 20:22:00,55.0,52.0,-100.00,West,275,3.0,6.0,90,0.00,,,0.10,41.000000,,2013-05-09 01:22:00,
2013-05-08 20:32:00,55.0,52.0,-100.00,West,275,3.0,6.0,90,0.00,,,0.10,41.000000,,2013-05-09 01:32:00,
2013-05-08 20:42:00,55.0,52.0,-100.00,West,275,3.0,6.0,90,0.00,,,0.10,41.000000,,2013-05-09 01:42:00,
2013-05-08 20:52:00,55.0,52.0,-100.00,West,275,3.0,6.0,90,0.00,,,0.10,41.000000,,2013-05-09 01:52:00,
2013-05-08 21:02:00,55.0,52.0,-100.00,West,275,3.0,6.0,90,0.00,,,0.10,41.000000,,2013-05-09 02:02:00,
2013-05-08 21:33:00,54.0,50.0,-100.00,NNW,332,3.0,6.0,85,0.00,,,0.10,12.000000,,2013-05-09 02:33:00,
2013-05-08 21:42:00,54.0,50.0,-100.00,NNW,332,3.0,6.0,85,0.00,,,0.10,12.000000,,2013-05-09 02:42:00,
2013-05-08 21:52:00,54.0,50.0,-100.00,NNW,332,3.0,6.0,85,0.00,,,0.10,12.000000,,2013-05-09 02:52:00,
2013-05-08 22:01:00,54.0,50.0,-100.00,NNW,332,3.0,6.0,85,0.00,,,0.10,12.000000,,2013-05-09 03:01:00,
2013-05-08 22:21:00,53.0,46.0,-100.00,NNE,30,4.0,9.0,76,0.00,,,0.10,0.000000,,2013-05-09 03:21:00,
2013-05-08 22:33:00,53.0,46.0,-100.00,NNE,30,4.0,9.0,76,0.00,,,0.10,0.000000,,2013-05-09 03:33:00,
2013-05-08 22:43:00,53.0,46.0,-100.00,NNE,30,4.0,9.0,76,0.00,,,0.10,0.000000,,2013-05-09 03:43:00,
2013-05-08 22:53:00,53.0,46.0,-100.00,NNE,30,4.0,9.0,76,0.00,,,0.10,0.000000,,2013-05-09 03:53:00,
2013-05-08 23:03:00,53.0,46.0,-100.00,NNE,30,4.0,9.0,76,0.00,,,0.10,0.000000,,2013-05-09 04:03:00,
2013-05-08 23:23:00,50.0,42.0,-100.00,NNE,19,4.0,9.0,75,0.00,,,0.10,0.000000,,2013-05-09 04:23:00,
2013-05-08 23:33:00,50.0,42.0,-100.00,NNE,19,4.0,9.0,75,0.00,,,0.10,0.000000,,2013-05-09 04:33:00,
2013-05-08 23:43:00,50.0,42.0,-100.00,NNE,19,4.0,9.0,75,0.00,,,0.10,0.000000,,2013-05-09 04:43:00,
2013-05-08 23:53:00,50.0,42.0,-100.00,NNE,19,4.0,9.0,75,0.00,,,0.10,0.000000,,2013-05-09 04:53:00,